Starlink 31138

operational
NORAD ID: 58806 Int'l Des: 2024-012 Owner: SPXS Country: US Constellation: starlink
LEOCIRCULAR

Über Starlink 31138

Beschreibung wird geladen...

Live-Position

3D-Globus wird geladen...

Nächste Überflüge

Höhenverlauf

Altitude vs Time

uPlot chart will show altitude changes over time

Zweizeiliger Elementsatz

1 58806U 24012V 25257.91684594 -.00000811 00000-0 -21157-4 0 9995
2 58806 43.0032 77.9280 0001313 272.3229 87.7471 15.25905833 94355
Epoch: 14. Sept. 2025 • Age: 30 hours

Aktueller Status

Höhe 490.9 km
Geschwindigkeit 7.62 km/s
Subsatellitenpunkt 37.34°N, 135.5°E
Startdatum 15. Jan. 2024
Alter 1.6 years
Typ internet

Technische Details

Klassifizierung Payload
Masse 730.00 kg
Trockenmasse 700.00 kg
Gesamtmasse 730.00 kg
Länge 0.30 m
Durchmesser 4.10 m
Spannweite 29.00 m
Form Box + pan
Hersteller SPXS
Bus-Typ Starlink V2M
Phasenstatus In Orbit
Besitzer/Staat SPXS/US

Große Konstellationen

Loading constellations...